| time (UTC) | temp F | wind direction | speed MPH | gust MPH | rain 1hr in | rain 24hr in | rain mn in | humidity % | barometer mb |
| 20260505034536 | 57 | 0 | 0.0 | 7.0 | 0.00 | 0.04 | 0.04 | 63 | 1009.7 |
| 20260505033044 | 57 | 0 | 0.0 | 4.0 | 0.00 | 0.04 | 0.04 | 62 | 1009.8 |
| 20260505031539 | 57 | 122 | 0.0 | 6.0 | 0.00 | 0.04 | 0.04 | 61 | 1009.6 |
| 20260505030038 | 58 | 0 | 0.0 | 4.0 | 0.00 | 0.04 | 0.04 | 60 | 1009.7 |
| 20260505024536 | 58 | 0 | 0.0 | 4.0 | 0.00 | 0.04 | 0.04 | 58 | 1009.8 |
| 20260505023037 | 59 | 0 | 0.0 | 5.0 | 0.01 | 0.04 | 0.04 | 57 | 1009.9 |
| 20260505021537 | 60 | 0 | 0.0 | 3.0 | 0.02 | 0.04 | 0.04 | 55 | 1009.8 |
| 20260505020038 | 60 | 0 | 0.0 | 6.0 | 0.04 | 0.04 | 0.04 | 54 | 1009.7 |
| 20260505014539 | 61 | 0 | 1.0 | 6.0 | 0.04 | 0.04 | 0.04 | 54 | 1009.7 |
| 20260505013038 | 61 | 148 | 2.0 | 10.0 | 0.03 | 0.03 | 0.03 | 53 | 1009.5 |
| 20260505011548 | 62 | 0 | 0.0 | 8.0 | 0.02 | 0.02 | 0.02 | 52 | 1009.2 |
| 20260505010039 | 62 | 0 | 0.0 | 10.0 | 0.00 | 0.00 | 0.00 | 52 | 1009.0 |
| 20260505004542 | 63 | 153 | 0.0 | 7.0 | 0.00 | 0.00 | 0.00 | 50 | 1008.6 |
| 20260505003037 | 64 | 155 | 1.0 | 10.0 | 0.00 | 0.00 | 0.00 | 49 | 1008.2 |
| 20260505001537 | 64 | 180 | 1.0 | 11.0 | 0.00 | 0.00 | 0.00 | 48 | 1007.7 |
| 20260505000036 | 65 | 0 | 1.0 | 8.0 | 0.00 | 0.00 | 0.00 | 46 | 1007.5 |
| 20260504234544 | 66 | 237 | 0.0 | 9.0 | 0.00 | 0.00 | 0.00 | 44 | 1007.2 |
| 20260504233043 | 67 | 0 | 2.0 | 6.0 | 0.00 | 0.00 | 0.00 | 42 | 1006.9 |
| 20260504231539 | 69 | 198 | 2.0 | 10.0 | 0.00 | 0.00 | 0.00 | 40 | 1006.5 |
| 20260504230037 | 70 | 0 | 0.0 | 3.0 | 0.00 | 0.00 | 0.00 | 37 | 1006.1 |
| 20260504224537 | 70 | 0 | 0.0 | 7.0 | 0.00 | 0.00 | 0.00 | 35 | 1006.0 |
| 20260504223039 | 70 | 101 | 1.0 | 7.0 | 0.00 | 0.00 | 0.00 | 36 | 1006.0 |
| 20260504221540 | 71 | 0 | 0.0 | 8.0 | 0.00 | 0.00 | 0.00 | 35 | 1006.0 |
| 20260504220041 | 72 | 0 | 1.0 | 10.0 | 0.00 | 0.00 | 0.00 | 34 | 1005.9 |
| 20260504214552 | 72 | 134 | 0.0 | 4.0 | 0.00 | 0.00 | 0.00 | 35 | 1005.8 |
| 20260504213049 | 72 | 129 | 2.0 | 10.0 | 0.00 | 0.00 | 0.00 | 33 | 1005.8 |
| 20260504211538 | 72 | 58 | 2.0 | 12.0 | 0.00 | 0.00 | 0.00 | 33 | 1005.8 |
| 20260504210038 | 72 | 88 | 3.0 | 11.0 | 0.00 | 0.00 | 0.00 | 33 | 1006.0 |
| 20260504204537 | 73 | 227 | 2.0 | 10.0 | 0.00 | 0.00 | 0.00 | 31 | 1005.9 |
| 20260504203036 | 74 | 53 | 0.0 | 12.0 | 0.00 | 0.00 | 0.00 | 33 | 1005.9 |
| 20260504201539 | 74 | 203 | 2.0 | 8.0 | 0.00 | 0.00 | 0.00 | 31 | 1006.0 |
| 20260504200043 | 74 | 105 | 2.0 | 9.0 | 0.00 | 0.00 | 0.00 | 29 | 1006.0 |
| 20260504194542 | 74 | 0 | 1.0 | 13.0 | 0.00 | 0.00 | 0.00 | 29 | 1006.2 |
| 20260504193037 | 74 | 245 | 4.0 | 15.0 | 0.00 | 0.00 | 0.00 | 30 | 1006.0 |
| 20260504191550 | 74 | 59 | 3.0 | 13.0 | 0.00 | 0.00 | 0.00 | 31 | 1006.1 |
| 20260504190044 | 73 | 63 | 3.0 | 10.0 | 0.00 | 0.00 | 0.00 | 34 | 1006.4 |
| 20260504184551 | 73 | 74 | 4.0 | 14.0 | 0.00 | 0.00 | 0.00 | 31 | 1006.5 |
| 20260504183047 | 73 | 0 | 3.0 | 14.0 | 0.00 | 0.00 | 0.00 | 30 | 1006.5 |
| 20260504181544 | 73 | 5 | 3.0 | 9.0 | 0.00 | 0.00 | 0.00 | 32 | 1006.5 |
| 20260504180037 | 73 | 321 | 3.0 | 16.0 | 0.00 | 0.00 | 0.00 | 34 | 1006.8 |
| 20260504174541 | 72 | 122 | 2.0 | 11.0 | 0.00 | 0.00 | 0.00 | 36 | 1006.8 |
| 20260504173040 | 71 | 130 | 3.0 | 11.0 | 0.00 | 0.00 | 0.00 | 36 | 1006.9 |
| 20260504171539 | 71 | 169 | 4.0 | 12.0 | 0.00 | 0.00 | 0.00 | 35 | 1007.1 |
| 20260504081544 | 43 | 0 | 0.0 | 0.0 | 0.00 | 0.00 | 0.00 | 74 | 1009.7 |
| 20260504044540 | 39 | 0 | 0.0 | 0.0 | 0.00 | 0.00 | 0.00 | 74 | 1009.8 |
| 20260504043038 | 39 | 0 | 0.0 | 0.0 | 0.00 | 0.00 | 0.00 | 74 | 1009.8 |
| 20260504041536 | 39 | 0 | 0.0 | 0.0 | 0.00 | 0.00 | 0.00 | 74 | 1009.7 |
| 20260504040057 | 39 | 0 | 0.0 | 0.0 | 0.00 | 0.00 | 0.00 | 73 | 1009.6 |